Weather History for Racine, WI

Change the Weather History Date:

Wednesday, January 2, 2013

  Actual Average Record
Temperature  
Mean Temperature 17 °F -  
Max Temperature 26 °F 29 °F 57 °F (2000)
Min Temperature 8 °F 14 °F -14 °F (1979)
Degree Days  
Heating Degree Days 48    
Moisture  
Dew Point 11 °F    
Average Humidity 70    
Maximum Humidity 81    
Minimum Humidity 55    
Precipitation  
Precipitation 0.00 in - - ()
Sea Level Pressure  
Sea Level Pressure 30.16 in    
Wind  
Wind Speed 7 mph (SW)    
Max Wind Speed 10 mph    
Max Gust Speed -    
Visibility 10 miles    
Events      
Averages and records for this station are not official NWS values.
T = Trace of Precipitation, MM = Missing Value Source: NWS Daily Summary

Daily Weather History Graph

Daily Weather History Graph

Search for Another Location

Airport:

Trip Planner

Search our weather history database for the weather conditions in past years. The results will help you decide how hot, cold, wet, or windy it might be!

Date:

Astronomy

Jan. 02, 2013 Rise Set
Actual Time 7:21 AM CST 4:29 PM CST
Civil Twilight 6:49 AM CST 5:01 PM CST
Nautical Twilight 6:14 AM CST 5:36 PM CST
Astronomical Twilight 5:40 AM CST 6:11 PM CST
Moon 10:09 PM CST (1/2) 9:55 AM CST (1/2)
Length of Visible Light 10h 11m
Length of Day
9h 07m
Waning Gibbous, 75% of the Moon is Illuminated
Jan 2
Waning Gibbous
Jan 4
Last Quarter
Jan 11
New
Jan 18
First Quarter
Jan 26
Full

Hourly Weather History & Observations

Time (CST) Temp. Windchill Dew Point Humidity Pressure Visibility Wind Dir Wind Speed Gust Speed Precip Events Conditions
12:33 AM 8.6 °F -3.7 °F -0.4 °F 67% 30.15 in 10.0 mi WSW 8.1 mph - N/A   Mostly Cloudy
12:53 AM 8.1 °F -3.2 °F -0.0 °F 70% 30.19 in 10.0 mi West 6.9 mph - N/A   Overcast
1:53 AM 10.0 °F 0.4 °F 1.9 °F 70% 30.20 in 10.0 mi SW 5.8 mph - N/A   Overcast
2:53 AM 12.0 °F 1.5 °F 3.9 °F 70% 30.20 in 10.0 mi West 6.9 mph - N/A   Overcast
3:53 AM 12.9 °F 2.6 °F 6.1 °F 74% 30.20 in 10.0 mi WSW 6.9 mph - N/A   Overcast
4:53 AM 14.0 °F 3.9 °F 7.0 °F 74% 30.19 in 10.0 mi West 6.9 mph - N/A   Overcast
6:53 AM 16.0 °F - 10.0 °F 77% 30.20 in 10.0 mi Calm Calm - N/A   Overcast
7:23 AM 15.8 °F 10.2 °F 10.4 °F 79% 30.17 in 10.0 mi SW 3.5 mph - N/A   Overcast
7:53 AM 17.1 °F 11.7 °F 12.0 °F 81% 30.21 in 10.0 mi SW 3.5 mph - N/A   Overcast
9:13 AM 19.4 °F 14.3 °F 14.0 °F 80% 30.18 in 10.0 mi SW 3.5 mph - N/A   Overcast
9:53 AM 21.0 °F 13.4 °F 14.0 °F 74% 30.21 in 10.0 mi SW 5.8 mph - N/A   Mostly Cloudy
10:07 AM 21.2 °F 13.6 °F 14.0 °F 74% 30.17 in 10.0 mi WSW 5.8 mph - N/A   Scattered Clouds
10:53 AM 21.0 °F 12.4 °F 14.0 °F 74% 30.20 in 10.0 mi WSW 6.9 mph - N/A   Partly Cloudy
11:53 AM 23.0 °F 13.9 °F 14.0 °F 68% 30.17 in 10.0 mi SW 8.1 mph - N/A   Partly Cloudy
12:53 PM 24.1 °F 15.2 °F 12.9 °F 62% 30.14 in 10.0 mi SSW 8.1 mph - N/A   Clear
1:53 PM 26.1 °F 16.8 °F 12.9 °F 58% 30.12 in 10.0 mi SSW 9.2 mph - N/A   Clear
3:53 PM 25.0 °F 19.3 °F 12.0 °F 58% 30.12 in 10.0 mi SSW 4.6 mph - N/A   Clear
4:53 PM 25.0 °F 20.7 °F 10.9 °F 55% 30.13 in 10.0 mi South 3.5 mph - N/A   Clear
5:53 PM 24.1 °F 18.2 °F 10.9 °F 57% 30.12 in 10.0 mi South 4.6 mph - N/A   Mostly Cloudy
6:53 PM 26.1 °F 16.8 °F 14.0 °F 60% 30.12 in 10.0 mi SSW 9.2 mph - N/A   Overcast
8:53 PM 23.0 °F 12.4 °F 15.1 °F 72% 30.11 in 10.0 mi SW 10.4 mph - N/A   Partly Cloudy
9:53 PM 23.0 °F 13.1 °F 15.1 °F 72% 30.10 in 10.0 mi SW 9.2 mph - N/A   Overcast
10:53 PM 23.0 °F 13.9 °F 16.0 °F 74% 30.10 in 10.0 mi WSW 8.1 mph - N/A   Overcast
11:53 PM 24.1 °F 13.7 °F 17.1 °F 75% 30.09 in 10.0 mi WSW 10.4 mph - N/A   Overcast